Location: Gorze? G�rny
(49.8500°N, 19.5000°E)
Time: 08:29:30
(UTC+00:00)

Cosmos 1674 Rocket - Pass Details

Date: 25 September 2021
Orbit: 601 x 631 km, 82.5° (Epoch: 15 October)

Event Time Altitude Azimuth Distance (km) Brightness Sun altitude
Rises 18:33:57 0° 332° (NNW) 2,882 7.8 -19.8°
Reaches altitude 10° 18:37:23 10° 304° (WNW) 1,964 7.3 -20.3°
Maximum altitude 18:39:12 13° 279° (W) 1,797 7.0 -20.6°
Drops below altitude 10° 18:41:01 10° 253° (WSW) 1,953 6.8 -20.9°
Sets 18:44:24 0° 225° (SW) 2,846 7.2 -21.3°
